Weather History for Evanston, WY

Change the Weather History Date:

Tuesday, November 12, 2013

  Actual Average Record
Temperature  
Mean Temperature 45 °F 31 °F  
Max Temperature 60 °F 40 °F 66 °F (1999)
Min Temperature 29 °F 22 °F 0 °F (2014)
Degree Days  
Heating Degree Days 20 34  
Month to date heating degree days 331 372  
Since 1 July heating degree days 1313 1425  
Cooling Degree Days 0 0  
Month to date cooling degree days 0 0  
Year to date cooling degree days 348 162  
Moisture  
Dew Point 18 °F    
Average Humidity 37    
Maximum Humidity 58    
Minimum Humidity 15    
Precipitation  
Precipitation 0.00 in 0.04 in 0.19 in (2012)
Month to date precipitation 0.10 0.53  
Year to date precipitation 5.12 11.04  
Sea Level Pressure  
Sea Level Pressure 30.42 in    
Wind  
Wind Speed 5 mph (ESE)    
Max Wind Speed 13 mph    
Max Gust Speed 13 mph    
Visibility 10 miles    
Events      
T = Trace of Precipitation, MM = Missing Value Source: NWS Daily Summary

Daily Weather History Graph

Daily Weather History Graph

Search for Another Location

Airport:

Trip Planner

Search our weather history database for the weather conditions in past years. The results will help you decide how hot, cold, wet, or windy it might be!

Date:

Astronomy

Nov. 12, 2013 Rise Set
Actual Time 7:09 AM MST 5:07 PM MST
Civil Twilight 6:39 AM MST 5:36 PM MST
Nautical Twilight 6:06 AM MST 6:09 PM MST
Astronomical Twilight 5:33 AM MST 6:42 PM MST
Moon 2:26 PM MST (11/12) 1:59 AM MST (11/12)
Length of Visible Light 10h 57m
Length of Day
9h 58m
Waxing Gibbous, 77% of the Moon is Illuminated
Nov 12
Waxing Gibbous
Nov 17
Full
Nov 25
Last Quarter
Dec 2
New
Dec 9
First Quarter

Hourly Weather History & Observations

Time (MST) Temp. Windchill Dew Point Humidity Pressure Visibility Wind Dir Wind Speed Gust Speed Precip Events Conditions
12:53 AM 35.1 °F 29.3 °F 18.0 °F 50% 30.40 in 10.0 mi East 6.9 mph - N/A   Clear
1:53 AM 37.9 °F 33.5 °F 17.1 °F 43% 30.40 in 10.0 mi ESE 5.8 mph - N/A   Clear
2:53 AM 37.0 °F 31.0 °F 16.0 °F 42% 30.41 in 10.0 mi SE 8.1 mph - N/A   Clear
3:53 AM 30.0 °F 21.7 °F 17.1 °F 59% 30.45 in 10.0 mi East 9.2 mph - N/A   Clear
4:53 AM 34.0 °F 26.6 °F 17.1 °F 50% 30.46 in 10.0 mi East 9.2 mph - N/A   Clear
5:53 AM 32.0 °F 25.6 °F 18.0 °F 56% 30.49 in 10.0 mi East 6.9 mph - N/A   Clear
6:53 AM 30.9 °F 22.8 °F 17.1 °F 57% 30.51 in 10.0 mi ENE 9.2 mph - N/A   Clear
7:53 AM 33.1 °F 28.7 °F 18.0 °F 54% 30.50 in 10.0 mi East 4.6 mph - N/A   Clear
8:53 AM 37.0 °F 31.6 °F 19.0 °F 48% 30.51 in 10.0 mi East 6.9 mph - N/A   Clear
9:53 AM 43.0 °F - 18.0 °F 37% 30.48 in 10.0 mi Calm Calm - N/A   Clear
10:53 AM 48.0 °F - 19.0 °F 32% 30.47 in 10.0 mi Calm Calm - N/A   Clear
11:53 AM 52.0 °F - 16.0 °F 24% 30.43 in 10.0 mi SW 3.5 mph - N/A   Clear
12:53 PM 55.0 °F - 16.0 °F 22% 30.42 in 10.0 mi Calm Calm - N/A   Clear
1:53 PM 59.0 °F - 12.9 °F 16% 30.36 in 10.0 mi Calm Calm - N/A   Clear
2:53 PM 60.1 °F - 14.0 °F 16% 30.34 in 10.0 mi Calm Calm - N/A   Clear
3:53 PM 59.0 °F - 16.0 °F 19% 30.37 in 10.0 mi Calm Calm - N/A   Clear
4:53 PM 55.0 °F - 17.1 °F 23% 30.37 in 10.0 mi ENE 8.1 mph - N/A   Clear
5:53 PM 46.9 °F - 25.0 °F 42% 30.41 in 10.0 mi East 10.4 mph - N/A   Clear
6:53 PM 45.0 °F 41.8 °F 24.1 °F 44% 30.43 in 10.0 mi East 5.8 mph - N/A   Clear
7:53 PM 45.0 °F 40.6 °F 23.0 °F 42% 30.42 in 10.0 mi SE 8.1 mph - N/A   Clear
8:53 PM 43.0 °F 38.8 °F 21.0 °F 42% 30.40 in 10.0 mi ESE 6.9 mph - N/A   Clear
9:53 PM 43.0 °F 39.5 °F 19.9 °F 40% 30.37 in 10.0 mi SE 5.8 mph - N/A   Clear
10:53 PM 42.1 °F 38.4 °F 19.9 °F 41% 30.34 in 10.0 mi SSE 5.8 mph - N/A   Clear
11:53 PM 42.1 °F 38.4 °F 19.9 °F 41% 30.32 in 10.0 mi South 5.8 mph - N/A   Clear